When you browse on this site, cookies collect data to enhance your experience and personalize the content and advertising you see.
Visit our Privacy Policy to learn more. By continuing to use the site, you agree to this use of cookies and data.
  • In Hungary
  • List of Countries
  • For 7 days
  • Water Temperature
  • Satellite Maps
  • Weather Map
  • News
  • Weather Widgets
  • user-avatar
    Login

    Hourly Weather Amora

    Today, 19 July, Friday

    Time Temperature Precipitation Wind Pressure Humidity
    00:00 +19°C° 0 mm 5 mps 759 mmHg 88%
    01:00 +19°C° 0 mm 4 mps 758 mmHg 89%
    02:00 +19°C° 0 mm 4 mps 758 mmHg 90%
    03:00 +18°C° 0 mm 3 mps 758 mmHg 91%
    04:00 +18°C° 0 mm 3 mps 758 mmHg 91%
    05:00 +18°C° 0 mm 2 mps 758 mmHg 92%
    06:00 +21°C° 0 mm 2 mps 758 mmHg 81%
    07:00 +24°C° 0 mm 3 mps 758 mmHg 70%
    08:00 +26°C° 0 mm 3 mps 758 mmHg 59%
    09:00 +28°C° 0 mm 3 mps 758 mmHg 53%
    10:00 +30°C° 0 mm 4 mps 758 mmHg 47%
    11:00 +33°C° 0 mm 5 mps 758 mmHg 41%
    12:00 +34°C° 0 mm 6 mps 757 mmHg 39%
    13:00 +34°C° 0 mm 7 mps 757 mmHg 38%
    14:00 +34°C° 0 mm 8 mps 757 mmHg 36%
    15:00 +33°C° 0 mm 8 mps 757 mmHg 38%
    16:00 +31°C° 0 mm 9 mps 757 mmHg 41%
    17:00 +29°C° 0 mm 9 mps 757 mmHg 43%
    18:00 +27°C° 0 mm 8 mps 757 mmHg 53%
    19:00 +24°C° 0 mm 8 mps 758 mmHg 64%
    20:00 +22°C° 0 mm 7 mps 758 mmHg 74%
    21:00 +21°C° 0 mm 7 mps 758 mmHg 78%
    22:00 +21°C° 0 mm 7 mps 758 mmHg 82%
    23:00 +21°C° 0 mm 6 mps 758 mmHg 85%

    Tomorrow, 20 July, Saturday

    Time Temperature Precipitation Wind Pressure Humidity
    00:00 +20°C° 0 mm 6 mps 758 mmHg 86%
    01:00 +20°C° 0 mm 6 mps 758 mmHg 87%
    02:00 +20°C° 0 mm 6 mps 758 mmHg 88%
    03:00 +20°C° 0 mm 5 mps 758 mmHg 88%
    04:00 +20°C° 0 mm 4 mps 758 mmHg 88%
    05:00 +20°C° 0 mm 3 mps 758 mmHg 88%
    06:00 +22°C° 0 mm 4 mps 759 mmHg 77%
    07:00 +25°C° 0 mm 5 mps 759 mmHg 67%
    08:00 +27°C° 0 mm 6 mps 759 mmHg 56%
    09:00 +28°C° 0 mm 7 mps 759 mmHg 52%
    10:00 +30°C° 0 mm 7 mps 760 mmHg 47%
    11:00 +32°C° 0 mm 8 mps 760 mmHg 43%
    12:00 +32°C° 0 mm 8 mps 759 mmHg 43%
    13:00 +32°C° 0 mm 8 mps 759 mmHg 43%
    14:00 +32°C° 0 mm 9 mps 759 mmHg 44%
    15:00 +31°C° 0 mm 9 mps 759 mmHg 48%
    16:00 +29°C° 0 mm 9 mps 759 mmHg 52%
    17:00 +27°C° 0 mm 9 mps 759 mmHg 56%
    18:00 +26°C° 0 mm 8 mps 760 mmHg 59%
    19:00 +23°C° 0 mm 7 mps 760 mmHg 62%
    20:00 +21°C° 0 mm 6 mps 761 mmHg 65%
    21:00 +20°C° 0 mm 6 mps 761 mmHg 68%
    22:00 +20°C° 0 mm 6 mps 761 mmHg 71%
    23:00 +19°C° 0 mm 6 mps 761 mmHg 74%

    Day after tomorrow, 21 July, Sunday

    Time Temperature Precipitation Wind Pressure Humidity
    00:00 +19°C° 0 mm 5 mps 761 mmHg 76%
    01:00 +17°C° 0 mm 5 mps 760 mmHg 78%
    02:00 +17°C° 0 mm 5 mps 760 mmHg 81%
    03:00 +17°C° 0 mm 5 mps 760 mmHg 83%
    04:00 +18°C° 0 mm 4 mps 760 mmHg 85%
    05:00 +18°C° 0 mm 4 mps 760 mmHg 87%
    06:00 +20°C° 0 mm 4 mps 761 mmHg 76%
    07:00 +22°C° 0 mm 5 mps 761 mmHg 66%
    08:00 +25°C° 0 mm 5 mps 761 mmHg 56%
    09:00 +27°C° 0 mm 5 mps 761 mmHg 50%
    10:00 +28°C° 0 mm 6 mps 761 mmHg 45%
    11:00 +30°C° 0 mm 6 mps 761 mmHg 40%
    12:00 +30°C° 0 mm 6 mps 761 mmHg 39%
    13:00 +32°C° 0 mm 7 mps 761 mmHg 38%
    14:00 +32°C° 0 mm 7 mps 760 mmHg 37%
    15:00 +30°C° 0 mm 7 mps 760 mmHg 41%
    16:00 +28°C° 0 mm 7 mps 760 mmHg 45%
    17:00 +27°C° 0 mm 7 mps 760 mmHg 49%
    18:00 +24°C° 0 mm 7 mps 760 mmHg 58%
    19:00 +22°C° 0 mm 6 mps 761 mmHg 67%
    20:00 +20°C° 0 mm 5 mps 761 mmHg 77%
    21:00 +19°C° 0 mm 5 mps 761 mmHg 80%
    22:00 +19°C° 0 mm 4 mps 761 mmHg 83%
    23:00 +18°C° 0 mm 4 mps 761 mmHg 86%

    22 July, Monday

    Time Temperature Precipitation Wind Pressure Humidity
    00:00 +18°C° 0 mm 3 mps 761 mmHg 88%
    01:00 +18°C° 0 mm 3 mps 760 mmHg 89%
    02:00 +17°C° 0 mm 2 mps 760 mmHg 90%
    03:00 +17°C° 0 mm 2 mps 760 mmHg 91%
    04:00 +17°C° 0 mm 2 mps 760 mmHg 91%
    05:00 +17°C° 0 mm 2 mps 760 mmHg 92%
    06:00 +20°C° 0 mm 2 mps 760 mmHg 81%
    07:00 +23°C° 0 mm 2 mps 761 mmHg 70%
    08:00 +25°C° 0 mm 2 mps 761 mmHg 60%
    09:00 +27°C° 0 mm 2 mps 761 mmHg 52%
    10:00 +29°C° 0 mm 3 mps 761 mmHg 45%
    11:00 +31°C° 0 mm 3 mps 761 mmHg 37%
    12:00 +33°C° 0 mm 4 mps 760 mmHg 36%
    13:00 +33°C° 0 mm 5 mps 760 mmHg 34%
    14:00 +34°C° 0 mm 6 mps 760 mmHg 33%
    15:00 +32°C° 0 mm 6 mps 760 mmHg 37%
    16:00 +30°C° 0 mm 6 mps 759 mmHg 41%
    17:00 +29°C° 0 mm 6 mps 759 mmHg 45%
    18:00 +26°C° 0 mm 6 mps 759 mmHg 57%
    19:00 +23°C° 0 mm 5 mps 760 mmHg 68%
    20:00 +20°C° 0 mm 5 mps 760 mmHg 79%
    21:00 +20°C° 0 mm 4 mps 760 mmHg 82%
    22:00 +19°C° 0 mm 4 mps 760 mmHg 85%
    23:00 +19°C° 0 mm 3 mps 760 mmHg 88%

    23 July, Tuesday

    Time Temperature Precipitation Wind Pressure Humidity
    00:00 +18°C° 0 mm 3 mps 760 mmHg 89%
    01:00 +18°C° 0 mm 2 mps 759 mmHg 89%
    02:00 +18°C° 0 mm 2 mps 759 mmHg 90%
    03:00 +18°C° 0 mm 2 mps 759 mmHg 90%
    04:00 +18°C° 0 mm 2 mps 759 mmHg 91%
    05:00 +18°C° 0 mm 2 mps 759 mmHg 91%
    06:00 +20°C° 0 mm 2 mps 759 mmHg 80%
    07:00 +23°C° 0 mm 2 mps 759 mmHg 69%
    08:00 +25°C° 0 mm 2 mps 760 mmHg 58%
    09:00 +27°C° 0 mm 3 mps 759 mmHg 51%
    10:00 +29°C° 0 mm 4 mps 759 mmHg 45%
    11:00 +30°C° 0 mm 5 mps 759 mmHg 39%
    12:00 +32°C° 0 mm 5 mps 759 mmHg 36%
    13:00 +33°C° 0 mm 5 mps 759 mmHg 34%
    14:00 +33°C° 0 mm 5 mps 758 mmHg 32%
    15:00 +32°C° 0 mm 6 mps 758 mmHg 36%
    16:00 +29°C° 0 mm 7 mps 758 mmHg 40%
    17:00 +28°C° 0 mm 7 mps 758 mmHg 45%
    18:00 +26°C° 0 mm 6 mps 758 mmHg 53%
    19:00 +23°C° 0 mm 5 mps 758 mmHg 61%
    20:00 +21°C° 0 mm 4 mps 758 mmHg 70%
    21:00 +21°C° 0 mm 4 mps 758 mmHg 73%
    22:00 +20°C° 0 mm 3 mps 758 mmHg 76%
    23:00 +20°C° 0 mm 3 mps 758 mmHg 79%

    24 July, Wednesday

    Time Temperature Precipitation Wind Pressure Humidity
    00:00 +20°C° 0 mm 2 mps 758 mmHg 81%
    01:00 +20°C° 0 mm 2 mps 758 mmHg 83%
    02:00 +20°C° 0 mm 2 mps 757 mmHg 85%
    03:00 +21°C° 0 mm 1 mps 757 mmHg 84%
    04:00 +21°C° 0 mm 1 mps 758 mmHg 84%
    05:00 +21°C° 0 mm 1 mps 758 mmHg 84%
    06:00 +22°C° 0 mm 1 mps 758 mmHg 78%
    07:00 +24°C° 0 mm 2 mps 758 mmHg 73%
    08:00 +25°C° 0 mm 2 mps 758 mmHg 67%
    09:00 +26°C° 0 mm 3 mps 758 mmHg 65%
    10:00 +27°C° 0 mm 3 mps 758 mmHg 63%
    11:00 +28°C° 0 mm 4 mps 758 mmHg 62%
    12:00 +28°C° 0 mm 5 mps 758 mmHg 60%
    13:00 +28°C° 0 mm 5 mps 757 mmHg 58%
    14:00 +28°C° 0 mm 6 mps 757 mmHg 56%
    15:00 +27°C° 0 mm 6 mps 757 mmHg 56%
    16:00 +26°C° 0 mm 7 mps 757 mmHg 56%
    17:00 +24°C° 0 mm 7 mps 757 mmHg 56%
    18:00 +22°C° 0 mm 6 mps 757 mmHg 62%
    19:00 +21°C° 0 mm 6 mps 758 mmHg 67%
    20:00 +19°C° 0 mm 5 mps 758 mmHg 73%
    21:00 +19°C° 0 mm 4 mps 758 mmHg 76%
    22:00 +18°C° 0 mm 4 mps 758 mmHg 79%
    23:00 +18°C° 0 mm 3 mps 758 mmHg 83%
    Show more